Flag for Germany Weather past 2 weeks in Trier, Rhineland-Palatinate, Germany

Now
60 °F

Light freezing rain. Low clouds.


Feels Like: 60 °F
Forecast: 54 / 84 °F
Wind: 3 mph from West

Location: Trier-Petrisberg

Current Time: Aug 28, 2015 at 2:17:59 AM

Latest Report: Aug 28, 2015 at 1:00 AM


Visibility: 2 mi

Pressure: 29.92 "Hg

Humidity: 96%

Dew point: 59 °F

Location of TrierLocation

Historic Weather in Trier — Graph

°F

Trier temperature yesterday

Maximum temperature yesterday: 75 °F (at 4:00 PM)
Minimum temperature yesterday: 62 °F (at 11:00 AM)
Average temperature yesterday: 67 °F

Past Weeks' High & Low Weather Summary

 TemperatureHumidityPressure
High95 °F (Aug 13, 4:00 PM)100% (Aug 14, 5:00 AM)30.26 "Hg (Aug 14, 5:00 AM)
Low47 °F (Aug 19, 7:00 AM)23% (Aug 13, 4:00 PM)29.60 "Hg (Aug 24, 1:00 PM)
Average65 °F72%29.95 "Hg
* Reported Aug 12 11:00 PM — Aug 27 11:00 PM, Trier, Weather by CustomWeather, © 2015

Note: Actual official high and low records may vary slightly from our data, if they occured in-between our weather recording intervals... More about our weather records

Advertising

Trier weather history for previous 24 hours

 ConditionsComfort  
Time TempWeatherWind HumidityBarometerVisibility
11:00 PM
Thu, Aug 27
62 °FRain. Low clouds.3 mph96%29.88 "Hg1 mi
10:00 PM63 °FLight rain. Overcast.5 mph94%29.86 "Hg4 mi
9:00 PM64 °FLight rain. Low clouds.2 mph95%29.86 "Hg2 mi
8:00 PM64 °FLight rain. Low clouds.1 mph95%29.84 "Hg2 mi
7:00 PM66 °FLight rain. Low clouds.No wind92%29.85 "Hg3 mi
6:00 PM67 °FLight rain. Overcast.3 mph86%29.84 "Hg12 mi
5:00 PM73 °FOvercast.2 mph63%29.81 "Hg31 mi
4:00 PM75 °FPartly sunny.2 mph60%29.81 "Hg25 mi
3:00 PM71 °FOvercast.2 mph68%29.84 "Hg31 mi
2:00 PM70 °FOvercast.3 mph67%29.86 "Hg31 mi
1:00 PM66 °FOvercast.2 mph74%29.88 "Hg37 mi
12:00 PM64 °FMild.1 mph83%29.89 "HgN/A
11:00 AM62 °FOvercast.N/A90%29.90 "Hg31 mi
10:00 AM62 °FLight rain. Overcast.3 mph85%29.92 "Hg19 mi
9:00 AM64 °FLight rain. Overcast.5 mph87%29.90 "Hg22 mi
8:00 AM65 °FLight rain. Overcast.5 mph86%29.90 "Hg19 mi
7:00 AM68 °FLight rain. Overcast.5 mph74%29.88 "Hg25 mi
4:00 AM69 °FOvercast.5 mph60%29.85 "Hg43 mi
3:00 AM71 °FPassing clouds.5 mph56%29.83 "Hg43 mi
2:00 AM72 °FPassing clouds.5 mph53%29.84 "Hg43 mi
Weather by CustomWeather, © 2015

See weather overviewHow to use our weather pages